Gizmo — WDE9010 — position and weather

sailwx.info

Track history (hours):
 
Tides and Currents Weather Stations Pressure Air Temp Water Temp Dewpoint Dewpoint Depression Visibility Wind Speed Wind Dir Waves Ship Positions

Gizmo

Owner: Ellison, Bennett, Camden, ME. More information available from US FCC via Universal Licensing System and Coast Guard Vessel Documentation Center.

Last reported at 2014-Oct-21 08:33 UTC. Time now 2014-Oct-21 09:00 UTC.
Position N 37°02' W 076°20'.

Length 12 m; draft 1.4 m.

Type: Pleasure craft. MMSI: 367412350.

Date/timePositionNaut miles runAvg speedWind from/ knotsBaromVisibWave heightAir tempDewpointWater temp
2014-Oct-21 08:33N 37°02' W 076°20'0 0.0
2014-Oct-21 07:33N 37°02' W 076°20'0 0.0
2014-Oct-21 06:33N 37°02' W 076°20'0 0.0
2014-Oct-21 05:33N 37°02' W 076°20'0 0.0
2014-Oct-21 04:33N 37°02' W 076°20'0 0.0
2014-Oct-21 03:33N 37°02' W 076°20'0 0.0
2014-Oct-21 02:33N 37°02' W 076°20'0 0.0
2014-Oct-21 01:33N 37°02' W 076°20'0 0.0
2014-Oct-21 00:33N 37°02' W 076°20'0 0.0
2014-Oct-20 23:33N 37°02' W 076°20'0 0.0
2014-Oct-20 20:21N 37°02' W 076°20'0 0.0
2014-Oct-20 19:33N 37°02' W 076°20'0 0.0
2014-Oct-20 18:33N 37°02' W 076°20'0 0.0
2014-Oct-20 17:33N 37°02' W 076°20'0 0.0
2014-Oct-20 16:33N 37°02' W 076°20'0 0.0
2014-Oct-20 15:33N 37°02' W 076°20'0 0.0
2014-Oct-20 14:33N 37°02' W 076°20'0 0.0
2014-Oct-20 13:33N 37°02' W 076°20'  
2014-Oct-17 18:30N 36°59' W 076°19'8 7.9
2014-Oct-17 17:33N 37°06' W 076°15'10 9.5
2014-Oct-17 16:33N 37°16' W 076°13'38 6.1
2014-Oct-17 10:20N 37°53' W 076°16'0 0.0
2014-Oct-17 09:32N 37°53' W 076°16'0 0.0
2014-Oct-17 08:32N 37°53' W 076°16'0 0.0
2014-Oct-17 07:32N 37°53' W 076°16'0 0.0
2014-Oct-17 06:32N 37°53' W 076°16'0 0.0
2014-Oct-17 05:32N 37°53' W 076°16'0 0.0
2014-Oct-17 04:23N 37°53' W 076°16'83 4.9
2014-Oct-16 11:24N 39°16' W 076°34'1 0.1
2014-Oct-16 01:32N 39°17' W 076°35'0 0.0
2014-Oct-16 00:26N 39°17' W 076°35'0 0.0
2014-Oct-15 23:29N 39°17' W 076°35'0 0.0
2014-Oct-15 21:20N 39°17' W 076°35'0 0.0
2014-Oct-15 20:14N 39°17' W 076°35'0 0.0
2014-Oct-15 18:14N 39°17' W 076°35'0 0.0
2014-Oct-15 17:32N 39°17' W 076°35'0 0.0
2014-Oct-15 14:11N 39°17' W 076°35'0 0.0
2014-Oct-15 13:20N 39°17' W 076°35'0 0.0
2014-Oct-15 12:29N 39°17' W 076°35'0 0.0
2014-Oct-15 11:29N 39°17' W 076°35'0 0.0
2014-Oct-15 09:32N 39°17' W 076°35'0 0.0
2014-Oct-15 08:29N 39°17' W 076°35'0 0.0
2014-Oct-15 07:23N 39°17' W 076°35'0 0.0
2014-Oct-15 06:29N 39°17' W 076°35'0 0.0
2014-Oct-15 05:23N 39°17' W 076°35'0 0.0
2014-Oct-15 04:32N 39°17' W 076°35'0 0.0
2014-Oct-15 03:32N 39°17' W 076°35'0 0.0
2014-Oct-15 01:26N 39°17' W 076°35'0 0.0
2014-Oct-15 00:23N 39°17' W 076°35'0 0.0
2014-Oct-14 23:20N 39°17' W 076°35'0 0.0
2014-Oct-14 22:32N 39°17' W 076°35'0 0.0
2014-Oct-14 21:14N 39°17' W 076°35'0 0.0
2014-Oct-14 19:11N 39°17' W 076°35'0 0.0
2014-Oct-14 18:32N 39°17' W 076°35'0 0.0
2014-Oct-14 14:15N 39°17' W 076°35'0 0.0
2014-Oct-14 13:32N 39°17' W 076°35'0 0.0
2014-Oct-14 12:26N 39°17' W 076°35'0 0.0
2014-Oct-14 11:23N 39°17' W 076°35'0 0.0
2014-Oct-14 10:32N 39°17' W 076°35'0 0.0
2014-Oct-14 09:17N 39°17' W 076°35'0 0.0
2014-Oct-14 08:29N 39°17' W 076°35'0 0.0
2014-Oct-14 07:32N 39°17' W 076°35'0 0.0
2014-Oct-14 06:32N 39°17' W 076°35'0 0.0
2014-Oct-14 05:29N 39°17' W 076°35'0 0.0
2014-Oct-14 04:26N 39°17' W 076°35'0 0.0
2014-Oct-14 03:32N 39°17' W 076°35'0 0.0
2014-Oct-14 02:32N 39°17' W 076°35'0 0.0
2014-Oct-14 01:33N 39°17' W 076°35'0 0.0
2014-Oct-13 19:32N 39°17' W 076°35'0 0.0
2014-Oct-13 18:29N 39°17' W 076°35'0 0.0
2014-Oct-13 17:14N 39°17' W 076°35'0 0.0
2014-Oct-13 14:28N 39°17' W 076°35'0 0.0
2014-Oct-13 13:19N 39°17' W 076°35'0 0.0
2014-Oct-13 12:28N 39°17' W 076°35'0 0.0
2014-Oct-13 09:13N 39°17' W 076°35'0 0.0
2014-Oct-13 08:25N 39°17' W 076°35'0 0.0
2014-Oct-13 07:31N 39°17' W 076°35'0 0.0
2014-Oct-13 06:31N 39°17' W 076°35'0 0.0
2014-Oct-13 05:25N 39°17' W 076°35'0 0.0
2014-Oct-13 04:31N 39°17' W 076°35'0 0.0
2014-Oct-13 03:31N 39°17' W 076°35'0 0.0
2014-Oct-13 02:31N 39°17' W 076°35'0 0.0
2014-Oct-13 01:31N 39°17' W 076°35'0 0.0
2014-Oct-13 00:31N 39°17' W 076°35'0 0.0
2014-Oct-12 23:13N 39°17' W 076°35'0 0.0
2014-Oct-12 22:22N 39°17' W 076°35'0 0.0
2014-Oct-12 19:16N 39°17' W 076°35'0 0.0
2014-Oct-12 18:22N 39°17' W 076°35'0 0.0
2014-Oct-11 23:13N 39°17' W 076°35'0 0.0
2014-Oct-11 22:31N 39°17' W 076°35'0 0.0
2014-Oct-11 20:10N 39°17' W 076°35'  
Track history (hours):
 
Tides and Currents Weather Stations Pressure Air Temp Water Temp Dewpoint Dewpoint Depression Visibility Wind Speed Wind Dir Waves Ship Positions

Gizmo

Owner: Ellison, Bennett, Camden, ME. More information available from US FCC via Universal Licensing System and Coast Guard Vessel Documentation Center.

Last reported at 2014-Oct-21 08:33 UTC. Time now 2014-Oct-21 09:00 UTC.
Position N 37°02' W 076°20'.

Length 12 m; draft 1.4 m.

Type: Pleasure craft. MMSI: 367412350.

Date/timePositionNaut miles runAvg speedWind from/ knotsBaromVisibWave heightAir tempDewpointWater temp
2014-Oct-21 08:33N 37°02' W 076°20'0 0.0
2014-Oct-21 07:33N 37°02' W 076°20'0 0.0
2014-Oct-21 06:33N 37°02' W 076°20'0 0.0
2014-Oct-21 05:33N 37°02' W 076°20'0 0.0
2014-Oct-21 04:33N 37°02' W 076°20'0 0.0
2014-Oct-21 03:33N 37°02' W 076°20'0 0.0
2014-Oct-21 02:33N 37°02' W 076°20'0 0.0
2014-Oct-21 01:33N 37°02' W 076°20'0 0.0
2014-Oct-21 00:33N 37°02' W 076°20'0 0.0
2014-Oct-20 23:33N 37°02' W 076°20'0 0.0
2014-Oct-20 20:21N 37°02' W 076°20'0 0.0
2014-Oct-20 19:33N 37°02' W 076°20'0 0.0
2014-Oct-20 18:33N 37°02' W 076°20'0 0.0
2014-Oct-20 17:33N 37°02' W 076°20'0 0.0
2014-Oct-20 16:33N 37°02' W 076°20'0 0.0
2014-Oct-20 15:33N 37°02' W 076°20'0 0.0
2014-Oct-20 14:33N 37°02' W 076°20'0 0.0
2014-Oct-20 13:33N 37°02' W 076°20'  
2014-Oct-17 18:30N 36°59' W 076°19'8 7.9
2014-Oct-17 17:33N 37°06' W 076°15'10 9.5
2014-Oct-17 16:33N 37°16' W 076°13'38 6.1
2014-Oct-17 10:20N 37°53' W 076°16'0 0.0
2014-Oct-17 09:32N 37°53' W 076°16'0 0.0
2014-Oct-17 08:32N 37°53' W 076°16'0 0.0
2014-Oct-17 07:32N 37°53' W 076°16'0 0.0
2014-Oct-17 06:32N 37°53' W 076°16'0 0.0
2014-Oct-17 05:32N 37°53' W 076°16'0 0.0
2014-Oct-17 04:23N 37°53' W 076°16'83 4.9
2014-Oct-16 11:24N 39°16' W 076°34'1 0.1
2014-Oct-16 01:32N 39°17' W 076°35'0 0.0
2014-Oct-16 00:26N 39°17' W 076°35'0 0.0
2014-Oct-15 23:29N 39°17' W 076°35'0 0.0
2014-Oct-15 21:20N 39°17' W 076°35'0 0.0
2014-Oct-15 20:14N 39°17' W 076°35'0 0.0
2014-Oct-15 18:14N 39°17' W 076°35'0 0.0
2014-Oct-15 17:32N 39°17' W 076°35'0 0.0
2014-Oct-15 14:11N 39°17' W 076°35'0 0.0
2014-Oct-15 13:20N 39°17' W 076°35'0 0.0
2014-Oct-15 12:29N 39°17' W 076°35'0 0.0
2014-Oct-15 11:29N 39°17' W 076°35'0 0.0
2014-Oct-15 09:32N 39°17' W 076°35'0 0.0
2014-Oct-15 08:29N 39°17' W 076°35'0 0.0
2014-Oct-15 07:23N 39°17' W 076°35'0 0.0
2014-Oct-15 06:29N 39°17' W 076°35'0 0.0
2014-Oct-15 05:23N 39°17' W 076°35'0 0.0
2014-Oct-15 04:32N 39°17' W 076°35'0 0.0
2014-Oct-15 03:32N 39°17' W 076°35'0 0.0
2014-Oct-15 01:26N 39°17' W 076°35'0 0.0
2014-Oct-15 00:23N 39°17' W 076°35'0 0.0
2014-Oct-14 23:20N 39°17' W 076°35'0 0.0
2014-Oct-14 22:32N 39°17' W 076°35'0 0.0
2014-Oct-14 21:14N 39°17' W 076°35'0 0.0
2014-Oct-14 19:11N 39°17' W 076°35'0 0.0
2014-Oct-14 18:32N 39°17' W 076°35'0 0.0
2014-Oct-14 14:15N 39°17' W 076°35'0 0.0
2014-Oct-14 13:32N 39°17' W 076°35'0 0.0
2014-Oct-14 12:26N 39°17' W 076°35'0 0.0
2014-Oct-14 11:23N 39°17' W 076°35'0 0.0
2014-Oct-14 10:32N 39°17' W 076°35'0 0.0
2014-Oct-14 09:17N 39°17' W 076°35'0 0.0
2014-Oct-14 08:29N 39°17' W 076°35'0 0.0
2014-Oct-14 07:32N 39°17' W 076°35'0 0.0
2014-Oct-14 06:32N 39°17' W 076°35'0 0.0
2014-Oct-14 05:29N 39°17' W 076°35'0 0.0
2014-Oct-14 04:26N 39°17' W 076°35'0 0.0
2014-Oct-14 03:32N 39°17' W 076°35'0 0.0
2014-Oct-14 02:32N 39°17' W 076°35'0 0.0
2014-Oct-14 01:33N 39°17' W 076°35'0 0.0
2014-Oct-13 19:32N 39°17' W 076°35'0 0.0
2014-Oct-13 18:29N 39°17' W 076°35'0 0.0
2014-Oct-13 17:14N 39°17' W 076°35'0 0.0
2014-Oct-13 14:28N 39°17' W 076°35'0 0.0
2014-Oct-13 13:19N 39°17' W 076°35'0 0.0
2014-Oct-13 12:28N 39°17' W 076°35'0 0.0
2014-Oct-13 09:13N 39°17' W 076°35'0 0.0
2014-Oct-13 08:25N 39°17' W 076°35'0 0.0
2014-Oct-13 07:31N 39°17' W 076°35'0 0.0
2014-Oct-13 06:31N 39°17' W 076°35'0 0.0
2014-Oct-13 05:25N 39°17' W 076°35'0 0.0
2014-Oct-13 04:31N 39°17' W 076°35'0 0.0
2014-Oct-13 03:31N 39°17' W 076°35'0 0.0
2014-Oct-13 02:31N 39°17' W 076°35'0 0.0
2014-Oct-13 01:31N 39°17' W 076°35'0 0.0
2014-Oct-13 00:31N 39°17' W 076°35'0 0.0
2014-Oct-12 23:13N 39°17' W 076°35'0 0.0
2014-Oct-12 22:22N 39°17' W 076°35'0 0.0
2014-Oct-12 19:16N 39°17' W 076°35'0 0.0
2014-Oct-12 18:22N 39°17' W 076°35'0 0.0
2014-Oct-11 23:13N 39°17' W 076°35'0 0.0
2014-Oct-11 22:31N 39°17' W 076°35'0 0.0
2014-Oct-11 20:10N 39°17' W 076°35'  

Dump ship's entire track history